Track STARLINK-2169 now! 10-day predictions STARLINK-2169 is classified as:
1 47752U 21017AG 22222.61744161 -.00004733 00000-0 -29928-3 0 9998 2 47752 53.0554 314.2966 0001385 85.8860 274.2287 15.06376665 80849